Tate High School FL US WEATHERSTEM current weather conditions

sailwx.info

Wind from 039 at 1 knots gusting 4

Air temperature 9.8° C
Dewpoint 8.1° C

Last reported at 2020-Jan-26 20:00 UTC.
Time now 2020-Jan-26 20:24 UTC

Location: N 30°35' W 087°18'.
View on Google Maps.

See reports from other nearby stations

  
Tides and Currents Weather Stations Pressure Air Temp Water Temp Dewpoint Dewpoint Depression Visibility Wind Speed Wind Dir Waves Ship Positions
date/time (UTC)wind fromknots sea level pressurealtimeterstation pressurevisibilityair tempwater tempwave heightnotes
2020-Jan-26 20:00 039 1 gusting 4 9.8
2020-Jan-26 19:50 023 2 gusting 2 9.8
2020-Jan-26 19:40 355 1 gusting 2 9.9
2020-Jan-26 19:30 355 1 gusting 2 10.1
2020-Jan-26 19:20 360 1 gusting 1 10.3
2020-Jan-26 19:10 360 0 gusting 2 10.4
2020-Jan-26 19:00 360 0 gusting 1 10.6
2020-Jan-26 18:50 10.6
2020-Jan-26 18:40 348 1 gusting 2 10.7
2020-Jan-26 18:30 348 0 gusting 3 10.7
2020-Jan-26 18:20 332 1 gusting 3 10.9
2020-Jan-26 18:10 321 2 gusting 3 11.0
2020-Jan-26 18:00 340 2 gusting 3 11.4
2020-Jan-26 17:50 012 4 gusting 4 11.4
2020-Jan-26 17:30 017 2 gusting 3 11.7
2020-Jan-26 17:10 163 1 gusting 2 11.8
2020-Jan-26 17:00 163 0 gusting 1 11.8
2020-Jan-26 16:50 11.7
2020-Jan-26 16:40 11.7
2020-Jan-26 16:30 11.4
2020-Jan-26 16:20 163 0 gusting 1 11.2
2020-Jan-26 16:10 11.2
2020-Jan-26 16:00 163 0 gusting 1 10.8
2020-Jan-26 15:50 163 0 gusting 2 10.6
2020-Jan-26 15:40 162 1 gusting 2 10.3
2020-Jan-26 15:30 9.8
2020-Jan-26 15:20 9.6
2020-Jan-26 15:10 9.3
2020-Jan-26 15:00 9.0
2020-Jan-26 14:50 8.5
2020-Jan-26 14:40 8.4
2020-Jan-26 14:30 8.3
2020-Jan-26 14:20 8.2
2020-Jan-26 13:50 162 1 gusting 2 7.9
2020-Jan-26 13:40 7.9
2020-Jan-26 13:20 270 0 gusting 0 7.8
2020-Jan-26 13:10 271 0 gusting 1 7.7
2020-Jan-26 13:00 271 1 gusting 1 7.7
2020-Jan-26 12:50 270 1 gusting 2 7.7
2020-Jan-26 12:40 271 1 gusting 2 7.6
2020-Jan-26 12:30 7.6
2020-Jan-26 12:20 280 0 gusting 2 7.8
2020-Jan-26 12:10 281 1 gusting 1 7.6
2020-Jan-26 12:00 280 0 gusting 1 7.5
2020-Jan-26 11:50 280 0 gusting 0 7.2
2020-Jan-26 11:40 7.2
2020-Jan-26 11:30 7.3
2020-Jan-26 11:10 280 1 gusting 4 7.3
2020-Jan-26 11:00 279 2 gusting 3 7.3
2020-Jan-26 10:50 291 1 gusting 2 7.3
2020-Jan-26 10:40 279 1 gusting 2 7.3
2020-Jan-26 10:30 279 1 gusting 3 7.1
2020-Jan-26 10:00 284 2 gusting 2 6.3
2020-Jan-26 09:50 259 1 gusting 2 6.0
2020-Jan-26 09:40 250 2 gusting 3 5.3
2020-Jan-26 09:30 250 0 gusting 1 6.3
2020-Jan-26 09:20 250 0 gusting 1 7.2
2020-Jan-26 09:10 250 0 gusting 1 7.4
2020-Jan-26 09:00 250 0 gusting 1 7.2
2020-Jan-26 08:50 250 0 gusting 1 6.7
2020-Jan-26 08:40 250 1 gusting 1 7.1
2020-Jan-26 08:30 7.4
2020-Jan-26 08:20 7.6
2020-Jan-26 08:10 7.3
2020-Jan-26 08:00 7.8
2020-Jan-26 07:50 7.7
2020-Jan-26 07:40 7.8
2020-Jan-26 07:30 7.9
2020-Jan-26 07:20 250 0 gusting 1 7.8
2020-Jan-26 07:10 250 0 gusting 0 7.2
2020-Jan-26 07:00 7.9
2020-Jan-26 06:50 8.1
2020-Jan-26 06:40 8.7
2020-Jan-26 06:30 250 0 gusting 0 8.6
2020-Jan-26 06:20 250 0 gusting 0 8.6
2020-Jan-26 06:10 8.6
2020-Jan-26 06:00 250 1 gusting 2 8.6
2020-Jan-26 05:50 250 1 gusting 1 8.4
2020-Jan-26 05:40 250 0 gusting 2 8.6
2020-Jan-26 05:30 250 1 gusting 2 8.6
2020-Jan-26 05:10 249 1 gusting 3 8.5
2020-Jan-26 05:00 240 1 gusting 3 8.6
2020-Jan-26 04:50 252 2 gusting 3 8.7
2020-Jan-26 04:40 236 1 gusting 2 8.7
2020-Jan-26 04:30 232 0 gusting 3 8.8
2020-Jan-26 04:20 246 2 gusting 2 8.9
2020-Jan-26 04:10 246 1 gusting 2 8.9
2020-Jan-26 04:00 236 1 gusting 2 8.9
2020-Jan-26 03:50 235 0 gusting 3 8.8
2020-Jan-26 03:40 235 1 gusting 3 9.0
2020-Jan-26 03:30 248 0 gusting 3 9.1
2020-Jan-26 03:20 257 1 gusting 2 9.1
2020-Jan-26 03:10 249 0 gusting 2 9.1
2020-Jan-26 03:00 249 1 gusting 3 9.1
2020-Jan-26 02:50 244 3 gusting 6 9.2
2020-Jan-26 02:40 250 2 gusting 6 9.2
2020-Jan-26 02:30 265 1 gusting 4 9.2
2020-Jan-26 02:20 250 4 gusting 6 9.2
2020-Jan-26 02:00 261 1 gusting 6 9.4
2020-Jan-26 01:50 261 3 gusting 6 9.4
2020-Jan-26 01:40 245 3 gusting 6 10.0
2020-Jan-26 01:30 11.2
2020-Jan-26 01:20 309 0 gusting 1 11.3
2020-Jan-26 01:10 310 0 gusting 1 11.2
2020-Jan-26 01:00 310 0 gusting 1 11.5
2020-Jan-26 00:50 310 0 gusting 1 11.9
2020-Jan-26 00:40 309 0 gusting 2 12.5
2020-Jan-26 00:30 309 0 gusting 2 12.8
2020-Jan-26 00:20 309 1 gusting 2 12.9
2020-Jan-26 00:10 310 1 gusting 3 13.1
2020-Jan-26 00:00 304 1 gusting 2 13.2
2020-Jan-25 23:50 293 1 gusting 2 13.3
2020-Jan-25 23:40 293 1 gusting 2 13.4
2020-Jan-25 23:30 292 1 gusting 4 13.7
2020-Jan-25 23:20 288 2 gusting 6 14.0
2020-Jan-25 23:10 311 2 gusting 4 14.4
2020-Jan-25 23:00 284 3 gusting 6 14.6
2020-Jan-25 22:50 326 3 gusting 6 14.8
2020-Jan-25 22:40 312 3 gusting 7 14.8
2020-Jan-25 22:30 302 1 gusting 10 14.9
2020-Jan-25 22:20 296 3 gusting 8 15.0
2020-Jan-25 22:10 279 6 gusting 8 15.1
2020-Jan-25 22:00 329 4 gusting 7 15.2
2020-Jan-25 21:50 263 5 gusting 10 15.3
2020-Jan-25 21:40 316 10 gusting 10 15.5
2020-Jan-25 21:30 331 7 gusting 11 15.4
2020-Jan-25 21:20 284 6 gusting 12 15.6
2020-Jan-25 21:10 238 1 gusting 11 15.7
2020-Jan-25 21:00 213 0 gusting 9 15.4
2020-Jan-25 20:40 295 4 gusting 11 15.4
2020-Jan-25 20:30 300 4 gusting 9 15.3
2020-Jan-25 20:20 277 7 gusting 11 15.1
2020-Jan-25 20:10 273 7 gusting 12 15.1
2020-Jan-25 20:00 267 8 gusting 12 15.1
2020-Jan-25 19:50 277 2 gusting 10 14.8
2020-Jan-25 19:40 14.7
2020-Jan-25 19:30 273 6 gusting 12 14.8
2020-Jan-25 19:20 317 5 gusting 11 14.4
2020-Jan-25 19:10 274 5 gusting 11 14.2
2020-Jan-25 19:00 329 6 gusting 13 14.0
2020-Jan-25 18:50 278 5 gusting 9 14.1
2020-Jan-25 18:40 288 4 gusting 11 13.9
2020-Jan-25 18:30 333 9 gusting 14 13.3
2020-Jan-25 18:20 260 3 gusting 12 13.1
2020-Jan-25 18:10 263 7 gusting 11 12.7
2020-Jan-25 18:00 284 5 gusting 10 12.7
2020-Jan-25 17:50 203 1 gusting 10 12.5
2020-Jan-25 17:40 329 9 gusting 13 12.3
2020-Jan-25 17:30 279 6 gusting 13 12.2
2020-Jan-25 17:20 257 13 gusting 13 11.9
2020-Jan-25 17:00 316 4 gusting 9 11.2
2020-Jan-25 16:50 313 8 gusting 13 10.5
2020-Jan-25 16:30 267 6 gusting 8 10.3
2020-Jan-25 16:20 271 6 gusting 9 9.9
2020-Jan-25 16:10 096 3 gusting 6 9.6
2020-Jan-25 16:00 005 5 gusting 11 9.3
2020-Jan-25 15:50 285 6 gusting 7 9.3
2020-Jan-25 15:40 306 2 gusting 6 8.8
2020-Jan-25 15:30 323 5 gusting 7 8.4
2020-Jan-25 15:20 327 3 gusting 8 8.3
2020-Jan-25 15:10 299 4 gusting 6 8.1
2020-Jan-25 15:00 288 4 gusting 6 7.6
2020-Jan-25 14:50 268 0 gusting 2 6.8
2020-Jan-25 14:40 268 0 gusting 2 6.5
2020-Jan-25 14:30 261 1 gusting 5 6.1
2020-Jan-25 14:20 252 0 gusting 3 5.3
2020-Jan-25 14:10 229 1 gusting 3 4.6
2020-Jan-25 14:00 228 1 gusting 3 4.1
2020-Jan-25 13:50 251 0 gusting 3 3.6
2020-Jan-25 13:40 244 2 gusting 5 3.2
2020-Jan-25 13:30 231 4 gusting 5 2.9
2020-Jan-25 13:20 240 2 gusting 3 2.7
2020-Jan-25 13:10 234 1 gusting 1 2.5
2020-Jan-25 12:40 231 1 gusting 1 2.6
2020-Jan-25 12:20 231 0 gusting 1 2.7
2020-Jan-25 12:10 231 0 gusting 1 3.1
2020-Jan-25 12:00 231 0 gusting 1 3.3
2020-Jan-25 11:40 337 0 gusting 1 3.2
2020-Jan-25 11:30 337 0 gusting 1 3.6
2020-Jan-25 11:10 3.9
2020-Jan-25 11:00 3.8
2020-Jan-25 10:40 337 1 gusting 1 4.4
2020-Jan-25 10:30 337 0 gusting 1 4.4
2020-Jan-25 10:20 4.7
2020-Jan-25 10:10 337 1 gusting 4 4.8
2020-Jan-25 10:00 342 2 gusting 3 4.9
2020-Jan-25 09:40 341 3 gusting 5 5.3
2020-Jan-25 09:30 335 1 gusting 6 5.5
2020-Jan-25 09:20 323 4 gusting 8 5.6
2020-Jan-25 09:10 348 2 gusting 7 5.7
2020-Jan-25 09:00 355 4 gusting 7 5.7
2020-Jan-25 08:40 335 4 gusting 6 5.9
2020-Jan-25 08:30 317 3 gusting 6 6.1
2020-Jan-25 08:20 321 4 gusting 7 6.3
2020-Jan-25 08:10 303 3 gusting 6 6.4
2020-Jan-25 08:00 308 2 gusting 8 6.6
2020-Jan-25 07:40 325 4 gusting 10 6.9
2020-Jan-25 07:30 338 2 gusting 6 7.0
2020-Jan-25 07:10 292 4 gusting 8 7.3
2020-Jan-25 07:00 307 8 gusting 9 7.5
2020-Jan-25 06:50 327 4 gusting 8 7.7
2020-Jan-25 06:40 313 4 gusting 8 7.9
2020-Jan-25 06:30 319 3 gusting 12 8.1
2020-Jan-25 06:10 325 5 gusting 6 8.3
2020-Jan-25 06:00 317 4 gusting 10 8.7
2020-Jan-25 05:40 302 7 gusting 13 9.3
2020-Jan-25 05:30 292 3 gusting 11 9.3
2020-Jan-25 05:10 302 3 gusting 7 9.0
2020-Jan-25 05:00 277 5 gusting 6 8.6
2020-Jan-25 04:40 273 5 gusting 6 8.4
2020-Jan-25 04:30 266 3 gusting 6 8.6
2020-Jan-25 04:10 252 1 gusting 6 9.0
2020-Jan-25 04:00 258 3 gusting 5 9.3
2020-Jan-25 03:50 252 3 gusting 5 9.5
2020-Jan-25 03:40 246 2 gusting 4 9.6
2020-Jan-25 03:30 240 3 gusting 6 9.7
2020-Jan-25 03:00 250 3 gusting 6 10.1
2020-Jan-25 02:50 235 3 gusting 6 10.1
2020-Jan-25 02:40 234 2 gusting 6 10.1
2020-Jan-25 02:30 229 3 gusting 4 10.2
2020-Jan-25 02:10 221 2 gusting 4 10.2
2020-Jan-25 02:00 213 2 gusting 5 10.6
2020-Jan-25 01:50 215 2 gusting 5 10.7
2020-Jan-25 01:40 215 3 gusting 5 10.8
2020-Jan-25 01:30 203 3 gusting 5 11.0
2020-Jan-25 01:10 251 1 gusting 6 11.3
2020-Jan-25 01:00 223 3 gusting 6 11.6
2020-Jan-25 00:50 230 2 gusting 7 11.8
2020-Jan-25 00:40 227 6 gusting 7 12.0
2020-Jan-25 00:30 216 4 gusting 6 12.2
2020-Jan-25 00:10 217 4 gusting 6 12.8
2020-Jan-25 00:00 245 2 gusting 7 13.1
2020-Jan-24 23:50 218 5 gusting 7 13.5
2020-Jan-24 23:40 213 2 gusting 9 14.1
2020-Jan-24 23:30 241 8 gusting 12 14.7
2020-Jan-24 23:10 228 3 gusting 6 15.6
2020-Jan-24 23:00 236 1 gusting 6 15.9
2020-Jan-24 22:50 268 5 gusting 7 16.2
2020-Jan-24 22:40 240 5 gusting 9 16.4
2020-Jan-24 22:30 292 3 gusting 13 16.7
2020-Jan-24 22:10 252 6 gusting 13 16.9
2020-Jan-24 21:50 302 2 gusting 13 16.9
2020-Jan-24 21:40 234 8 gusting 12 17.1
2020-Jan-24 21:30 226 6 gusting 10 17.0
2020-Jan-24 21:10 151 3 gusting 10 16.8
2020-Jan-24 21:00 273 7 gusting 10 16.7
2020-Jan-24 20:50 260 10 gusting 13 16.9
2020-Jan-24 20:40 288 10 gusting 14 16.7
2020-Jan-24 20:30 270 6 gusting 10 16.8
2020-Jan-24 20:10 267 6 gusting 14 16.6
2020-Jan-24 20:00 331 11 gusting 13 16.6